Home   Weather   Urbana   Past weeks

Flag for USA Past Weather in Urbana, Illinois, USA — Yesterday and Last 2 Weeks

Now
49 °F

Mostly cloudy.


Feels Like: 43 °F
Forecast: 49 / 61 °F
Wind: 17 mph from Southwest

Location: University Of Illinois-Willard Airport

Current Time: Apr 27, 2017 at 1:58:55 pm

Latest Report: Apr 27, 2017 at 1:22 pm


Visibility: 10 mi

Pressure: 29.72 "Hg

Humidity: 80%

Dew Point: 43 °F

Location of UrbanaLocation

Past Weather in Urbana — Graph

°F

Urbana Temperature Yesterday

Maximum temperature yesterday: 80 °F (at 12:53 pm)
Minimum temperature yesterday: 60 °F (at 9:53 pm)
Average temperature yesterday: 68 °F

High & Low Weather Summary for the Past Weeks

 TemperatureHumidityPressure
High84 °F (Apr 14, 2:53 pm)93% (Apr 26, 7:53 pm)30.40 "Hg (Apr 26, 7:53 pm)
Low37 °F (Apr 23, 5:53 am)12% (Apr 24, 3:53 pm)29.36 "Hg (Apr 27, 2:53 am)
Average63 °F58%29.97 "Hg
* Reported Apr 12 11:53 am — Apr 27 11:53 am, Urbana, Weather by CustomWeather, © 2017

Note: Actual official high and low records may vary slightly from our data, if they occured in-between our weather recording intervals... More about our weather records

Advertising

Urbana Weather History for the Previous 24 Hours

Scroll right to see more
 ConditionsComfort  
Time TempWeatherWind HumidityBarometerVisibility
11:53 am
Thu, Apr 27
47 °FOvercast.16 mph83%29.69 "Hg10 mi
11:40 am47 °FOvercast.20 mph80%29.69 "Hg10 mi
10:53 am47 °FOvercast.20 mph80%29.68 "Hg10 mi
10:00 am47 °FMostly cloudy.20 mph80%29.66 "Hg10 mi
9:39 am46 °FLow clouds.22 mph83%29.65 "Hg10 mi
9:00 am46 °FMostly cloudy.15 mph83%29.63 "Hg10 mi
8:28 am46 °FOvercast.20 mph83%29.62 "Hg10 mi
7:53 am46 °FOvercast.23 mph83%29.59 "Hg10 mi
7:06 am46 °FOvercast.17 mph86%29.57 "Hg10 mi
5:53 am47 °FOvercast.18 mph86%29.48 "Hg10 mi
5:15 am48 °FPassing clouds.21 mph86%29.44 "Hg10 mi
4:53 am49 °FLow clouds.24 mph90%29.42 "Hg10 mi
4:29 am51 °FLight rain. Mostly cloudy.25 mph89%29.41 "Hg10 mi
4:16 am52 °FRain. Fog.28 mph93%29.39 "Hg6 mi
4:00 am58 °FHeavy rain. Fog.37 mph90%29.37 "Hg3 mi
2:53 am58 °FMostly cloudy.17 mph87%29.36 "Hg10 mi
1:53 am59 °FLight rain. Overcast.22 mph87%29.39 "Hg7 mi
12:53 am60 °FLight rain. Overcast.22 mph90%29.44 "Hg10 mi
11:53 pm
Wed, Apr 26
60 °FMostly cloudy.12 mph93%29.46 "Hg10 mi
11:02 pm60 °FLight rain. Low clouds.13 mph93%29.49 "Hg8 mi
10:53 pm60 °FLight rain. Overcast.14 mph93%29.47 "Hg7 mi
9:53 pm60 °FLight rain. Mostly cloudy.13 mph93%29.51 "Hg9 mi
8:53 pm61 °FRain. Fog.6 mph90%29.48 "Hg6 mi
8:13 pm61 °FRain. Fog.9 mph90%29.49 "Hg4 mi
7:53 pm62 °FThundershowers. Fog.12 mph93%29.51 "Hg4 mi
6:53 pm63 °FHeavy rain. Fog.5 mph87%29.47 "Hg1 mi
5:53 pm65 °FOvercast.8 mph85%29.49 "Hg10 mi
4:53 pm70 °FLight rain. More clouds than sun.29 mph59%29.53 "Hg10 mi
3:53 pm78 °FMostly cloudy.20 mph39%29.50 "Hg10 mi
2:53 pm80 °FPassing clouds.22 mph36%29.50 "Hg10 mi
1:53 pm80 °FPartly sunny.26 mph35%29.51 "Hg10 mi
Weather by CustomWeather, © 2017

See weather overviewHow to use our weather pages